Погода в Округе Клатен

Индонезия     7°42′48″S   110°35′32″E
темп.,
°C
ветер,
м/с
пор.,
м/с
влажн.,
%
обл.,
%
осадки,
мм/ч
давл.,
гПа
погр.,
м
2 марта, вт
вт201:00+24ссз008795 4.8 101024
04:00+23св2292100 7.6 100948
07:00+25св118577 8.3 1010124
10:00+27вюв117683 0.1 1011647
13:00+30ююз016989 3.0 1009903
16:00+26юз2484100 9.6 1007391
19:00+25зюз1292100 14.9 101060
22:00+24з1288100 2.8 101124
3 марта, ср
ср301:00+23зсз129098 2.8 101024
04:00+23св118886 0.0 100924
07:00+25св118080 0.0 101079
10:00+30юв11591 0.0 1011855
13:00+32в125515 1.0 10091528
16:00+28ююз227475 6.2 1007430
19:00+25юз118988 10.1 101024
22:00+24ююз1191100 3.5 101224
4 марта, чт
чт401:00+24зсз129199 4.9 101151
04:00+24зсз2288100 1.3 101043
07:00+25сз118098 1.3 101282
10:00+29юз2263100 0.4 1012945
13:00+31ююз3361100 3.5 10101314
16:00+27ююз3576100 3.0 1008507
19:00+24юз2387100 4.1 101161
22:00+24з1289100 0.1 101239
5 марта, пт
пт501:00+23з2289100 0.1 101170
04:00+23з238694 0.0 101059
07:00+24з238297 0.0 1011159
10:00+29зюз455549 0.0 10111154
13:00+31юз675244 0.0 10091494
16:00+29юз676326 0.0 10081033
19:00+25ююз128249 0.0 101064
22:00+24всв1183100 0.0 101124
6 марта, сб
сб601:00+23ссз118278 0.0 100924
04:00+24св118195 0.0 100923
07:00+23ссв128997 0.5 101146
10:00+30юз125833 0.2 10111046
13:00+31ююз336050 2.8 10081170
16:00+26юв118497 10.6 100870
19:00+24св229299 15.4 101095
22:00+24св1291100 0.3 101151